| time (UTC) | temp F | wind direction | speed knots | gust knots | rain 1hr in | rain 24hr in | rain mn in | humidity % | barometer mb |
| 20260505223812 | 0 | 180 | 0.0 | 0.0 | 0.00 | 0.00 | 0.00 | 1004.5 | |
| 20260505223012 | 0 | 180 | 0.0 | 0.0 | 0.00 | 0.00 | 0.00 | 1004.5 | |
| 20260505222212 | 0 | 203 | 0.0 | 0.0 | 0.00 | 0.00 | 0.00 | 1004.1 | |
| 20260505221412 | 0 | 180 | 0.0 | 0.0 | 0.00 | 0.00 | 0.00 | 1004.2 | |
| 20260505220611 | 0 | 135 | 0.0 | 0.0 | 0.00 | 0.00 | 0.00 | 1003.8 | |
| 20260505215809 | 0 | 135 | 0.0 | 0.0 | 0.00 | 0.00 | 0.00 | 1003.9 | |
| 20260505215008 | 0 | 135 | 0.0 | 0.0 | 0.00 | 0.00 | 0.00 | 1003.9 | |
| 20260505214208 | 0 | 135 | 0.0 | 0.0 | 0.00 | 0.00 | 0.00 | 1003.8 | |
| 20260505213407 | 0 | 135 | 0.0 | 0.0 | 0.00 | 0.00 | 0.00 | 1003.8 | |
| 20260505212606 | 0 | 180 | 0.0 | 0.0 | 0.00 | 0.00 | 0.00 | 1003.7 | |
| 20260505211803 | 0 | 113 | 0.0 | 0.0 | 0.00 | 0.00 | 0.00 | 1003.7 | |
| 20260505211002 | 0 | 135 | 0.0 | 0.0 | 0.00 | 0.00 | 0.00 | 1003.9 | |
| 20260505210157 | 0 | 135 | 0.0 | 0.0 | 0.00 | 0.00 | 0.00 | 1003.8 | |
| 20260505205350 | 0 | 135 | 0.0 | 0.0 | 0.00 | 0.00 | 0.00 | 1003.8 | |
| 20260505204549 | 0 | 180 | 0.0 | 0.0 | 0.00 | 0.00 | 0.00 | 1003.8 | |
| 20260505203741 | 0 | 135 | 0.0 | 0.0 | 0.00 | 0.00 | 0.00 | 1003.8 | |
| 20260505202940 | 0 | 135 | 0.0 | 0.0 | 0.00 | 0.00 | 0.00 | 1003.8 | |
| 20260505202136 | 0 | 180 | 0.0 | 0.0 | 0.00 | 0.00 | 0.00 | 1003.8 | |
| 20260505201336 | 0 | 135 | 0.0 | 1.7 | 0.00 | 0.00 | 0.00 | 1003.7 | |
| 20260505200531 | 0 | 135 | 0.0 | 0.0 | 0.00 | 0.00 | 0.00 | 1003.7 | |
| 20260505195727 | 0 | 180 | 0.0 | 0.9 | 0.00 | 0.00 | 0.00 | 1003.7 | |
| 20260505194918 | 0 | 180 | 0.0 | 6.1 | 0.00 | 0.00 | 0.00 | 1003.6 | |
| 20260505194111 | 0 | 180 | 0.0 | 0.0 | 0.00 | 0.00 | 0.00 | 1003.6 | |
| 20260505193312 | 0 | 135 | 0.0 | 0.0 | 0.00 | 0.00 | 0.00 | 1003.6 | |
| 20260505192458 | 0 | 135 | 0.0 | 0.0 | 0.00 | 0.00 | 0.00 | 1003.6 | |
| 20260505191643 | 0 | 180 | 0.0 | 0.0 | 0.00 | 0.00 | 0.00 | 1003.4 | |
| 20260505190811 | 0 | 180 | 0.0 | 0.0 | 0.00 | 0.00 | 0.00 | 1003.5 | |
| 20260505185929 | 0 | 180 | 0.0 | 0.0 | 0.00 | 0.00 | 0.00 | 1003.4 | |
| 20260505185102 | 0 | 180 | 0.0 | 0.0 | 0.00 | 0.00 | 0.00 | 1003.2 | |
| 20260505184230 | 0 | 135 | 0.0 | 0.0 | 0.00 | 0.00 | 0.00 | 1003.1 | |
| 20260505183409 | 0 | 135 | 0.0 | 0.0 | 0.00 | 0.00 | 0.00 | 1003.1 | |
| 20260505182601 | 0 | 180 | 0.0 | 0.0 | 0.00 | 0.00 | 0.00 | 1003.0 | |
| 20260505181753 | 0 | 135 | 0.0 | 0.0 | 0.00 | 0.00 | 0.00 | 1003.0 | |
| 20260505180946 | 0 | 203 | 0.0 | 0.0 | 0.00 | 0.00 | 0.00 | 1003.0 | |
| 20260505180141 | 0 | 135 | 0.0 | 0.0 | 0.00 | 0.00 | 0.00 | 1003.0 | |
| 20260505175334 | 0 | 135 | 0.0 | 0.0 | 0.00 | 0.00 | 0.00 | 1002.8 | |
| 20260505174531 | 0 | 135 | 0.0 | 0.0 | 0.00 | 0.00 | 0.00 | 1002.8 | |
| 20260505173728 | 0 | 113 | 0.0 | 0.0 | 0.00 | 0.00 | 0.00 | 1002.8 | |
| 20260505172924 | 0 | 180 | 0.0 | 0.0 | 0.00 | 0.00 | 0.00 | 1002.7 | |
| 20260505172115 | 0 | 135 | 0.0 | 0.0 | 0.00 | 0.00 | 0.00 | 1002.7 | |
| 20260505171309 | 0 | 180 | 0.0 | 0.0 | 0.00 | 0.00 | 0.00 | 1002.6 | |
| 20260505170507 | 0 | 135 | 0.0 | 0.0 | 0.00 | 0.00 | 0.00 | 1002.7 | |
| 20260505165700 | 0 | 135 | 0.0 | 0.0 | 0.00 | 0.00 | 0.00 | 1002.6 | |
| 20260505164855 | 0 | 135 | 0.0 | 0.0 | 0.00 | 0.00 | 0.00 | 1002.7 | |
| 20260505164050 | 0 | 135 | 0.0 | 0.0 | 0.00 | 0.00 | 0.00 | 1002.8 | |
| 20260505162439 | 0 | 180 | 0.0 | 0.9 | 0.00 | 0.00 | 0.00 | 1002.9 | |
| 20260505161635 | 0 | 180 | 0.0 | 0.0 | 0.00 | 0.00 | 0.00 | 1002.9 | |
| 20260505160832 | 0 | 135 | 0.0 | 0.0 | 0.00 | 0.00 | 0.00 | 1002.9 | |
| 20260505152814 | 0 | 180 | 0.0 | 0.0 | 0.00 | 0.00 | 0.00 | 1002.2 | |
| 20260505152013 | 0 | 180 | 0.0 | 0.0 | 0.00 | 0.00 | 0.00 | 1001.9 | |
| 20260505151210 | 0 | 180 | 0.0 | 0.0 | 0.00 | 0.00 | 0.00 | 1002.1 | |
| 20260505150408 | 0 | 180 | 0.0 | 0.0 | 0.00 | 0.00 | 0.00 | 1002.2 | |
| 20260505124742 | 0 | 180 | 0.0 | 1.7 | 0.00 | 0.00 | 0.00 | 1003.3 | |
| 20260505123941 | 0 | 180 | 0.0 | 0.0 | 0.00 | 0.00 | 0.00 | 1003.3 | |
| 20260505123140 | 0 | 180 | 0.0 | 1.7 | 0.00 | 0.00 | 0.00 | 1003.3 | |
| 20260505122339 | 0 | 180 | 0.0 | 0.0 | 0.00 | 0.00 | 0.00 | 1003.5 | |
| 20260505121538 | 0 | 180 | 0.0 | 1.7 | 0.00 | 0.00 | 0.00 | 1003.4 | |
| 20260505120736 | 0 | 180 | 0.0 | 0.9 | 0.00 | 0.00 | 0.00 | 1003.7 | |
| 20260505115939 | 0 | 90 | 0.0 | 0.9 | 0.00 | 0.00 | 0.00 | 1003.6 | |
| 20260505115133 | 0 | 180 | 0.0 | 1.7 | 0.00 | 0.00 | 0.00 | 1003.6 | |
| 20260505114334 | 0 | 203 | 0.0 | 0.0 | 0.00 | 0.00 | 0.00 | 1004.0 | |
| 20260505113533 | 0 | 180 | 0.0 | 0.0 | 0.00 | 0.00 | 0.00 | 1003.9 | |
| 20260505112733 | 0 | 180 | 0.0 | 0.0 | 0.00 | 0.00 | 0.00 | 1004.1 | |
| 20260505111932 | 0 | 158 | 0.0 | 1.7 | 0.00 | 0.00 | 0.00 | 1004.2 | |
| 20260505111131 | 0 | 180 | 0.0 | 1.7 | 0.00 | 0.00 | 0.00 | 1004.4 | |
| 20260505110332 | 0 | 180 | 0.0 | 0.0 | 0.00 | 0.00 | 0.00 | 1004.5 | |
| 20260505101534 | 0 | 135 | 0.0 | 0.0 | 0.00 | 0.00 | 0.00 | 1004.8 | |
| 20260505100733 | 0 | 180 | 0.0 | 0.0 | 0.00 | 0.00 | 0.00 | 1005.1 | |
| 20260505095931 | 0 | 135 | 0.0 | 0.0 | 0.00 | 0.00 | 0.00 | 1005.1 | |
| 20260505095130 | 0 | 45 | 0.0 | 0.0 | 0.00 | 0.00 | 0.00 | 1005.3 | |
| 20260505094331 | 0 | 135 | 0.0 | 0.0 | 0.00 | 0.00 | 0.00 | 1005.4 | |
| 20260505093529 | 0 | 135 | 0.0 | 0.0 | 0.00 | 0.00 | 0.00 | 1005.3 | |
| 20260505092729 | 0 | 180 | 0.0 | 0.0 | 0.00 | 0.00 | 0.00 | 1005.5 | |
| 20260505091930 | 0 | 135 | 0.0 | 0.0 | 0.00 | 0.00 | 0.00 | 1005.4 | |
| 20260505091129 | 0 | 113 | 0.0 | 0.0 | 0.00 | 0.00 | 0.00 | 1005.6 | |
| 20260505090329 | 0 | 135 | 0.0 | 0.9 | 0.00 | 0.00 | 0.00 | 1005.7 | |
| 20260505085529 | 0 | 90 | 0.0 | 3.5 | 0.00 | 0.00 | 0.00 | 1005.9 | |
| 20260505084729 | 0 | 180 | 0.0 | 0.0 | 0.00 | 0.00 | 0.00 | 1006.0 | |
| 20260505083927 | 0 | 135 | 0.0 | 0.0 | 0.00 | 0.00 | 0.00 | 1006.0 | |
| 20260505083123 | 0 | 113 | 0.0 | 0.0 | 0.00 | 0.00 | 0.00 | 1006.1 | |
| 20260505082316 | 0 | 135 | 0.0 | 0.0 | 0.00 | 0.00 | 0.00 | 1006.4 | |
| 20260505081510 | 0 | 135 | 0.0 | 0.0 | 0.00 | 0.00 | 0.00 | 1006.6 | |
| 20260505080709 | 0 | 135 | 0.0 | 0.0 | 0.00 | 0.00 | 0.00 | 1006.8 | |
| 20260505075909 | 0 | 180 | 0.0 | 0.0 | 0.00 | 0.00 | 0.00 | 1007.1 | |
| 20260505075108 | 0 | 135 | 0.0 | 0.0 | 0.00 | 0.00 | 0.00 | 1007.1 | |
| 20260505074311 | 0 | 180 | 0.0 | 0.9 | 0.00 | 0.00 | 0.00 | 1007.2 | |
| 20260505073509 | 0 | 135 | 0.0 | 0.0 | 0.00 | 0.00 | 0.00 | 1007.2 | |
| 20260505072708 | 0 | 135 | 0.0 | 0.0 | 0.00 | 0.00 | 0.00 | 1007.2 | |
| 20260505071908 | 0 | 180 | 0.0 | 0.0 | 0.00 | 0.00 | 0.00 | 1007.5 | |
| 20260505071108 | 0 | 158 | 0.0 | 1.7 | 0.00 | 0.00 | 0.00 | 1007.7 | |
| 20260505070308 | 0 | 135 | 0.0 | 0.0 | 0.00 | 0.00 | 0.00 | 1007.7 | |
| 20260505065509 | 0 | 180 | 0.0 | 3.5 | 0.00 | 0.00 | 0.00 | 1007.6 | |
| 20260505064708 | 0 | 135 | 0.0 | 0.0 | 0.00 | 0.00 | 0.00 | 1007.6 | |
| 20260505063906 | 0 | 180 | 0.0 | 0.0 | 0.00 | 0.00 | 0.00 | 1007.5 | |
| 20260505063104 | 0 | 135 | 0.0 | 0.0 | 0.00 | 0.00 | 0.00 | 1007.5 | |
| 20260505062304 | 0 | 180 | 0.0 | 0.0 | 0.00 | 0.00 | 0.00 | 1007.5 | |
| 20260505061504 | 0 | 180 | 0.0 | 0.0 | 0.00 | 0.00 | 0.00 | 1007.5 | |
| 20260505060703 | 0 | 203 | 0.0 | 0.0 | 0.00 | 0.00 | 0.00 | 1007.7 | |
| 20260505055903 | 0 | 180 | 0.0 | 0.0 | 0.00 | 0.00 | 0.00 | 1007.9 | |
| 20260505055102 | 0 | 180 | 0.0 | 3.5 | 0.00 | 0.00 | 0.00 | 1007.9 | |
| 20260505054302 | 0 | 135 | 0.0 | 0.0 | 0.00 | 0.00 | 0.00 | 1008.0 | |
| 20260505053503 | 0 | 180 | 0.0 | 0.0 | 0.00 | 0.00 | 0.00 | 1007.8 | |
| 20260505052703 | 0 | 180 | 0.0 | 0.0 | 0.00 | 0.00 | 0.00 | 1007.9 | |
| 20260505051902 | 0 | 180 | 0.0 | 0.0 | 0.00 | 0.00 | 0.00 | 1008.2 | |
| 20260505051102 | 0 | 180 | 0.0 | 0.0 | 0.00 | 0.00 | 0.00 | 1008.2 | |
| 20260505050303 | 0 | 203 | 0.0 | 0.0 | 0.00 | 0.00 | 0.00 | 1008.4 | |
| 20260505041502 | 0 | 135 | 0.0 | 0.0 | 0.00 | 0.00 | 0.00 | 1009.8 | |
| 20260505040701 | 0 | 135 | 0.0 | 0.0 | 0.00 | 0.00 | 0.00 | 1010.0 | |
| 20260505035900 | 0 | 135 | 0.0 | 0.0 | 0.00 | 0.00 | 0.00 | 1010.1 | |
| 20260505035100 | 0 | 45 | 0.0 | 0.0 | 0.00 | 0.00 | 0.00 | 1010.2 | |
| 20260505034301 | 0 | 45 | 0.0 | 0.0 | 0.00 | 0.00 | 0.00 | 1010.2 | |
| 20260505033502 | 0 | 135 | 0.0 | 0.0 | 0.00 | 0.00 | 0.00 | 1010.3 | |
| 20260505032701 | 0 | 135 | 0.0 | 0.0 | 0.00 | 0.00 | 0.00 | 1010.3 | |
| 20260505031902 | 0 | 135 | 0.0 | 0.0 | 0.00 | 0.00 | 0.00 | 1010.3 | |
| 20260505031101 | 0 | 135 | 0.0 | 0.0 | 0.00 | 0.00 | 0.00 | 1010.3 | |
| 20260505030300 | 0 | 135 | 0.0 | 0.0 | 0.00 | 0.00 | 0.00 | 1010.4 | |
| 20260505025500 | 0 | 45 | 0.0 | 0.0 | 0.00 | 0.00 | 0.00 | 1010.4 | |
| 20260505024659 | 0 | 45 | 0.0 | 0.0 | 0.00 | 0.00 | 0.00 | 1010.6 | |
| 20260505023901 | 0 | 45 | 0.0 | 0.0 | 0.00 | 0.00 | 0.00 | 1010.4 | |
| 20260505023101 | 0 | 45 | 0.0 | 0.0 | 0.00 | 0.00 | 0.00 | 1010.3 | |
| 20260505022304 | 0 | 45 | 0.0 | 0.0 | 0.00 | 0.00 | 0.00 | 1010.4 | |
| 20260505021501 | 0 | 45 | 0.0 | 0.0 | 0.00 | 0.00 | 0.00 | 1010.4 | |
| 20260505020700 | 0 | 45 | 0.0 | 0.0 | 0.00 | 0.00 | 0.00 | 1010.3 | |
| 20260505015858 | 0 | 45 | 0.0 | 0.0 | 0.00 | 0.00 | 0.00 | 1010.2 | |
| 20260505015057 | 0 | 90 | 0.0 | 0.0 | 0.00 | 0.00 | 0.00 | 1010.2 | |
| 20260505014258 | 0 | 135 | 0.0 | 0.0 | 0.00 | 0.00 | 0.00 | 1010.2 | |
| 20260505013456 | 0 | 135 | 0.0 | 0.0 | 0.00 | 0.00 | 0.00 | 1010.1 | |
| 20260505012656 | 0 | 45 | 0.0 | 0.0 | 0.00 | 0.00 | 0.00 | 1010.2 | |
| 20260505011855 | 0 | 90 | 0.0 | 0.0 | 0.00 | 0.00 | 0.00 | 1009.9 | |
| 20260505011055 | 0 | 45 | 0.0 | 0.0 | 0.00 | 0.00 | 0.00 | 1010.0 | |
| 20260505010256 | 0 | 180 | 0.0 | 0.0 | 0.00 | 0.00 | 0.00 | 1009.5 | |
| 20260505005456 | 0 | 180 | 0.0 | 0.0 | 0.00 | 0.00 | 0.00 | 1009.4 | |
| 20260505004655 | 0 | 158 | 0.0 | 0.0 | 0.00 | 0.00 | 0.00 | 1009.5 | |
| 20260505003854 | 0 | 158 | 0.0 | 0.0 | 0.00 | 0.00 | 0.00 | 1009.6 | |
| 20260505003054 | 0 | 180 | 0.0 | 0.0 | 0.00 | 0.00 | 0.00 | 1009.6 | |
| 20260505002254 | 0 | 180 | 0.0 | 0.0 | 0.00 | 0.00 | 0.00 | 1009.8 | |
| 20260505001454 | 0 | 248 | 0.0 | 0.0 | 0.00 | 0.00 | 0.00 | 1010.0 | |
| 20260505000654 | 0 | 180 | 0.0 | 0.0 | 0.00 | 0.00 | 0.00 | 1010.0 | |
| 20260504235854 | 0 | 248 | 0.0 | 0.0 | 0.00 | 0.00 | 0.00 | 1010.1 | |
| 20260504235055 | 0 | 180 | 0.0 | 0.0 | 0.00 | 0.00 | 0.00 | 1010.1 | |
| 20260504234254 | 0 | 180 | 0.0 | 0.0 | 0.00 | 0.00 | 0.00 | 1010.2 | |
| 20260504233455 | 0 | 135 | 0.0 | 0.0 | 0.00 | 0.00 | 0.00 | 1010.2 | |
| 20260504232654 | 0 | 158 | 0.0 | 0.0 | 0.00 | 0.00 | 0.00 | 1010.3 | |
| 20260504231854 | 0 | 158 | 0.0 | 0.0 | 0.00 | 0.00 | 0.00 | 1010.3 | |
| 20260504231053 | 0 | 180 | 0.0 | 0.0 | 0.00 | 0.00 | 0.00 | 1010.4 | |
| 20260504230251 | 0 | 135 | 0.0 | 0.0 | 0.00 | 0.00 | 0.00 | 1010.5 | |
| 20260504225447 | 0 | 135 | 0.0 | 0.0 | 0.00 | 0.00 | 0.00 | 1010.6 | |
| 20260504224625 | 0 | 135 | 0.0 | 0.0 | 0.00 | 0.00 | 0.00 | 1010.7 |